Temperature
3 2 2 2 3 3 3 3 3 3 4 3 2 2 1 1 1 1 1 1 1 1 3 4 5 6 6 7 7 7 8 8 8 8 9 9 9 9 10 10 10 10 10 10
2 1 2 3 3 3 3 3 2 3 3 3 1 1 1 0 0 -0 -0 -0 -0 1 2 3 4 5 5 6 6 6 7 7 7 7 8 8 9 9 9 9 9 10 10 10
1 2 3 3 2 3 2 2 2 2 3 2 2 1 0 -0 -0 -0 -1 -1 -1 -1 0 1 2 3 4 5 5 6 6 6 7 7 7 8 8 8 9 9 9 9 9 9
1 1 2 2 2 2 2 2 2 2 2 1 1 0 -0 -1 -1 -1 -1 -2 -1 -1 -1 0 1 2 3 3 4 5 5 6 6 6 6 7 7 7 8 8 9 9 9 9
0 1 1 1 2 2 1 2 1 1 1 -0 -0 -0 -1 -2 -2 -2 -2 -2 -2 -1 -1 -1 0 1 2 2 3 4 5 5 5 5 6 6 6 7 7 7 8 8 8 8
0 1 1 1 1 2 1 1 1 -0 -0 -0 -1 -1 -1 -2 -2 -2 -2 -2 -2 -2 -2 -1 -0 1 1 2 2 3 4 4 5 5 5 5 6 6 6 7 7 7 8 8
-0 0 0 0 1 1 0 -0 -0 -0 -1 -0 -1 -1 -2 -3 -3 -3 -3 -2 -2 -2 -2 -2 -1 -0 0 1 1 2 3 4 4 4 5 5 5 6 6 6 6 7 7 7
-2 -1 -1 -1 -0 -1 -1 -1 -1 -1 -1 -1 -2 -2 -3 -3 -3 -3 -3 -3 -2 -3 -2 -2 -2 -1 -1 0 1 1 2 3 3 4 4 4 5 5 5 5 6 6 6 7
-3 -2 -1 -0 -0 -1 -1 -2 -2 -2 -3 -3 -3 -4 -4 -3 -4 -4 -3 -3 -3 -3 -3 -3 -2 -2 -1 -1 -0 0 1 2 2 3 3 4 4 4 5 5 5 5 6 6
-3 -3 -2 -1 -0 -1 -1 -2 -3 -2 -2 -2 -3 -4 -4 -4 -4 -4 -4 -4 -4 -4 -3 -3 -3 -2 -2 -1 -1 -0 1 1 2 2 3 3 3 4 4 5 5 5 5 6
-4 -4 -3 -3 -3 -3 -3 -3 -4 -4 -3 -3 -3 -3 -4 -5 -5 -5 -5 -4 -4 -4 -4 -4 -3 -3 -2 -2 -1 -1 0 1 1 2 2 3 3 3 4 4 4 4 5 5
-4 -5 -5 -4 -3 -3 -3 -4 -4 -4 -4 -5 -4 -4 -4 -5 -5 -5 -5 -5 -5 -5 -4 -4 -4 -3 -3 -2 -2 -1 -1 -0 1 1 2 2 2 3 3 3 4 4 4 4
-4 -5 -5 -4 -3 -4 -4 -5 -5 -5 -5 -5 -5 -4 -4 -5 -5 -5 -5 -5 -5 -5 -5 -5 -4 -4 -3 -3 -2 -2 -1 -1 -0 0 1 2 2 2 3 3 3 3 4 4
-4 -6 -5 -4 -4 -5 -6 -5 -6 -6 -6 -6 -6 -5 -5 -5 -6 -6 -6 -6 -6 -6 -6 -5 -5 -5 -4 -4 -3 -3 -2 -2 -1 -0 0 1 1 2 2 2 2 3 3 3
-5 -6 -6 -6 -5 -6 -6 -6 -6 -6 -6 -6 -6 -6 -6 -6 -6 -6 -6 -6 -6 -6 -6 -6 -6 -5 -5 -4 -4 -3 -3 -2 -2 -1 -1 -0 1 1 1 2 2 2 2 3
-6 -6 -7 -6 -6 -6 -6 -6 -6 -6 -6 -7 -6 -7 -7 -6 -6 -6 -6 -7 -7 -7 -7 -7 -6 -6 -5 -5 -5 -4 -3 -3 -3 -2 -1 -1 -0 0 1 1 1 2 2 2
-7 -7 -6 -6 -7 -6 -7 -7 -7 -7 -8 -8 -7 -7 -8 -8 -7 -7 -7 -7 -7 -7 -7 -7 -7 -6 -6 -6 -5 -5 -4 -4 -3 -3 -2 -2 -1 -0 0 0 1 1 1 1
-7 -7 -7 -7 -7 -7 -6 -8 -8 -8 -8 -9 -8 -9 -9 -9 -8 -8 -7 -7 -8 -8 -8 -7 -7 -7 -6 -6 -6 -5 -5 -4 -4 -3 -3 -2 -2 -1 -1 -1 -0 0 1 1
-7 -7 -8 -8 -8 -8 -7 -8 -9 -9 -9 -9 -9 -9 -9 -9 -8 -8 -7 -8 -8 -8 -8 -8 -7 -7 -7 -7 -6 -6 -5 -5 -4 -4 -3 -3 -2 -2 -2 -1 -1 -0 -0 0
-8 -8 -8 -8 -7 -7 -7 -8 -8 -8 -9 -9 -9 -10 -9 -9 -9 -9 -8 -9 -9 -8 -8 -8 -8 -7 -7 -7 -7 -6 -6 -5 -5 -4 -4 -3 -3 -3 -2 -2 -1 -1 -1 -0
-8 -9 -9 -9 -9 -8 -9 -9 -8 -8 -8 -9 -9 -9 -10 -10 -10 -9 -9 -9 -9 -9 -8 -8 -8 -8 -8 -7 -7 -7 -6 -6 -5 -5 -4 -4 -3 -3 -3 -2 -2 -2 -1 -1
-9 -9 -10 -10 -9 -8 -9 -9 -9 -9 -9 -9 -9 -9 -10 -10 -10 -10 -9 -9 -9 -9 -9 -9 -8 -8 -8 -8 -8 -7 -7 -6 -6 -5 -5 -4 -4 -4 -3 -3 -2 -2 -2 -1
-10 -10 -10 -10 -9 -9 -9 -9 -8 -9 -9 -9 -9 -10 -10 -10 -10 -10 -10 -10 -10 -10 -9 -9 -9 -9 -8 -8 -8 -8 -7 -7 -6 -6 -5 -5 -5 -4 -4 -4 -3 -3 -2 -2
-11 -11 -11 -11 -10 -9 -9 -9 -9 -9 -9 -9 -10 -10 -10 -10 -10 -10 -10 -10 -10 -10 -10 -10 -9 -9 -9 -9 -9 -8 -8 -7 -7 -6 -6 -5 -5 -5 -5 -4 -4 -3 -3 -3
-11 -12 -11 -11 -11 -10 -9 -9 -9 -9 -9 -10 -10 -10 -10 -11 -10 -10 -10 -10 -10 -10 -10 -10 -10 -10 -9 -9 -9 -9 -8 -8 -7 -7 -7 -6 -6 -6 -5 -5 -4 -4 -4 -3
-12 -12 -11 -10 -10 -11 -9 -9 -9 -10 -10 -10 -10 -10 -10 -11 -11 -11 -11 -11 -11 -10 -10 -10 -10 -10 -10 -9 -9 -9 -9 -8 -8 -8 -7 -7 -7 -6 -6 -6 -5 -5 -4 -4
Wind_Speed
3 4 0 3 4 4 3 3 5 5 2 1 2 2 4 4 5 6 6 6 7 7 8 9 9 8 7 7 5 3 3 3 2 2 1 0 0 0 1 1 3 4 4 5
4 2 4 3 2 1 2 4 4 4 1 1 0 2 3 3 5 5 6 7 7 9 10 11 11 10 8 7 5 4 3 2 2 2 1 1 1 1 1 1 3 3 4 4
2 3 3 2 3 2 3 5 6 5 4 1 0 3 2 3 4 7 8 7 7 8 8 10 11 10 9 8 6 4 4 4 2 3 2 1 1 1 1 0 2 2 3 4
1 4 3 2 2 2 5 4 5 4 1 2 1 3 3 3 4 7 8 8 8 8 8 9 10 10 10 9 7 5 4 4 4 2 1 2 1 1 2 2 2 2 3 4
2 3 3 2 3 2 4 5 4 3 3 1 1 2 5 2 3 6 7 7 7 7 8 8 9 9 9 8 8 6 4 4 4 3 1 1 0 0 1 1 1 2 2 3
2 1 1 2 4 2 3 2 1 2 2 3 4 4 4 1 3 5 6 7 7 7 7 8 8 9 9 9 8 7 6 4 4 3 3 1 1 0 0 1 0 2 2 2
5 3 3 3 4 4 4 3 2 3 1 4 2 3 4 2 2 2 5 6 6 7 7 8 9 10 10 10 10 9 7 6 5 4 4 2 1 2 2 2 2 2 2 2
3 5 3 3 1 1 1 3 3 3 3 3 1 4 4 2 2 4 4 5 6 7 7 8 8 8 8 9 9 9 8 7 6 5 4 3 2 1 2 2 2 2 3 3
1 4 3 3 2 1 1 0 2 3 1 2 3 4 5 2 6 7 7 8 8 8 8 8 8 8 8 8 9 9 8 7 6 5 5 3 2 2 2 2 2 2 2 2
2 4 4 4 3 3 2 2 3 2 2 4 4 3 4 5 6 8 8 9 9 9 8 8 8 8 8 8 8 8 8 7 7 6 5 4 3 3 2 1 2 2 2 1
1 1 5 4 1 1 2 2 2 1 2 3 3 5 2 3 3 6 7 8 8 8 8 8 8 8 8 8 8 8 8 8 8 7 6 4 3 3 3 2 2 2 1 2
1 2 3 4 3 0 2 2 3 2 2 2 2 5 2 1 3 5 7 9 8 8 8 7 8 8 8 9 9 8 8 8 8 8 7 5 4 3 3 3 2 1 2 2
1 2 3 6 3 4 2 1 1 2 2 3 3 5 2 5 6 7 7 8 8 9 9 8 8 8 9 9 9 9 8 8 8 8 7 5 4 3 3 3 3 2 2 2
3 2 4 5 4 2 3 3 1 2 3 4 6 7 7 8 8 8 8 8 8 8 9 9 9 9 9 9 9 9 9 9 9 8 7 6 5 4 4 3 2 3 3 3
3 1 2 4 4 2 3 5 2 3 5 5 6 6 8 8 7 7 7 7 9 10 11 10 10 10 10 10 10 10 10 10 9 9 8 7 6 5 3 3 3 3 3 4
2 1 1 3 2 2 4 5 4 4 4 5 6 7 6 7 5 6 7 8 9 10 11 11 11 12 12 12 11 11 11 11 9 8 8 7 6 5 4 3 3 3 3 4
1 2 0 3 4 4 5 4 3 2 2 3 5 6 6 7 8 7 7 8 9 10 11 11 11 11 12 12 11 11 11 10 9 9 8 7 7 6 5 4 3 3 3 4
3 3 2 1 4 3 5 1 2 2 3 3 4 5 6 7 7 6 5 7 9 10 11 11 11 11 11 10 11 11 10 9 9 9 8 7 7 6 6 4 4 4 4 4
2 4 2 1 1 6 4 1 1 1 4 2 3 5 7 6 5 4 5 6 7 9 10 10 10 10 10 11 11 11 10 9 9 9 9 8 7 6 6 5 4 4 4 4
3 3 3 2 2 4 4 2 1 1 4 2 1 4 6 7 5 6 9 10 10 10 10 10 10 9 10 10 10 10 9 9 10 10 9 9 8 7 6 6 5 4 3 4
1 1 1 3 4 6 5 3 1 2 4 3 2 4 4 3 5 8 11 10 9 10 11 11 10 9 9 10 10 10 9 10 10 10 9 9 7 6 6 5 5 3 3 3
3 2 3 3 3 6 2 2 3 4 2 2 2 3 4 6 8 9 10 10 11 11 11 11 10 10 10 9 9 10 10 10 10 9 8 8 7 6 5 4 4 3 3 3
4 5 4 6 6 3 1 2 2 1 1 2 3 4 5 7 8 10 9 10 10 10 11 11 10 11 10 9 8 9 11 10 9 8 8 7 7 6 5 4 4 3 2 3
3 1 2 3 5 4 3 2 2 1 2 3 4 5 5 7 9 10 9 9 9 10 10 10 10 11 11 11 10 9 10 9 8 8 8 7 6 6 5 4 3 3 2 2
3 2 2 4 5 5 3 3 3 4 3 4 5 5 5 6 8 8 9 9 9 9 9 9 9 10 11 11 10 10 10 9 8 7 7 6 6 5 4 4 3 3 3 3
3 4 4 5 4 3 5 4 3 4 5 5 5 6 6 6 7 8 8 8 8 9 9 9 10 11 11 11 10 10 9 8 7 7 7 5 5 4 4 3 4 5 4 4
Wind_Direction
30 65 344 253 221 222 217 223 256 266 278 209 210 294 329 7 30 23 17 16 9 0 357 1 3 4 7 6 11 31 42 30 41 19 31 76 257 205 192 122 128 144 151 150
44 319 268 282 317 259 243 253 271 296 327 194 75 324 343 28 41 34 28 14 3 -0 3 3 4 6 3 359 2 8 7 15 18 5 322 207 224 214 232 150 126 147 159 160
164 270 308 4 4 346 272 229 250 285 331 13 330 307 352 8 40 32 23 11 8 5 358 359 1 2 357 356 350 350 350 354 357 11 23 47 45 30 22 219 186 173 167 159
303 313 352 12 337 314 271 261 267 268 267 280 153 275 287 320 356 7 3 0 358 357 356 358 359 359 354 347 343 342 346 355 357 16 56 110 144 224 271 253 228 189 166 165
310 345 14 351 309 290 265 294 269 243 196 261 294 221 288 1 338 332 339 344 346 348 352 352 353 354 353 351 349 344 347 355 356 357 357 139 145 306 325 311 201 190 184 171
302 324 9 291 308 285 306 349 30 65 117 239 224 195 283 284 284 312 326 333 337 341 344 345 350 358 359 359 357 355 355 351 350 351 348 323 214 141 132 310 196 212 209 200
337 339 349 357 353 1 36 62 11 356 318 249 201 192 250 271 307 300 314 322 330 339 345 347 351 357 355 358 356 355 355 351 346 347 339 311 262 207 206 222 211 221 221 219
344 310 335 358 1 291 312 134 160 217 239 283 319 229 247 253 328 336 330 331 345 348 347 344 344 347 349 351 352 353 347 345 344 341 335 324 322 265 249 237 220 217 224 222
314 285 327 340 333 106 74 199 182 156 265 258 259 291 300 336 349 347 347 350 346 341 341 343 343 346 347 347 346 345 343 339 338 338 333 326 333 318 297 280 235 212 228 232
176 277 304 319 5 30 98 133 76 134 216 258 277 269 276 303 318 331 340 342 338 340 342 343 342 342 344 344 343 344 343 339 335 338 331 326 319 312 305 295 255 214 205 202
120 229 316 351 12 298 29 67 71 137 178 200 266 274 256 249 301 320 325 329 331 336 337 337 338 339 341 346 348 346 343 344 342 338 333 327 317 315 311 289 270 248 211 199
95 124 286 274 272 342 156 173 157 176 257 204 223 270 307 329 321 327 326 331 334 336 335 336 337 341 345 346 346 344 341 341 336 331 329 323 315 311 304 290 273 255 223 214
112 97 340 338 345 9 13 344 189 172 179 198 210 264 338 357 343 343 337 333 336 340 342 344 344 345 343 341 341 340 338 336 333 330 326 319 311 298 288 283 269 253 229 223
104 134 180 221 256 286 305 315 320 162 206 232 229 262 303 331 332 333 334 334 337 340 340 342 343 342 340 338 338 336 335 334 331 332 323 316 309 289 277 271 253 244 234 226
97 193 227 248 265 269 279 294 281 215 223 225 256 266 286 306 309 314 324 335 342 341 341 340 339 336 336 337 336 334 333 333 332 328 323 315 310 303 285 266 244 240 239 233
93 173 236 283 268 302 304 303 277 252 250 248 272 279 293 312 321 326 330 337 336 334 335 334 335 334 334 332 330 330 329 330 329 324 321 322 315 312 298 272 251 238 240 235
155 147 212 277 314 340 299 274 237 241 245 226 248 266 314 325 327 326 324 327 325 326 328 329 328 325 324 324 325 323 322 324 325 322 321 323 321 313 305 282 260 242 237 237
156 156 172 304 13 273 252 227 186 233 283 254 263 292 310 305 307 310 319 327 329 330 328 325 324 322 322 323 324 321 321 325 325 323 321 323 319 313 307 291 264 250 243 234
151 153 145 143 267 277 294 278 201 228 295 272 270 305 322 321 330 325 341 342 328 323 322 319 318 316 320 323 324 324 326 328 327 325 323 321 314 307 305 296 274 257 244 242
52 85 132 145 211 254 269 289 289 122 298 298 286 310 327 347 344 315 335 334 328 326 326 325 323 323 324 324 327 327 327 328 324 321 319 316 312 303 297 294 285 271 248 245
44 56 167 195 228 267 271 294 89 170 270 308 298 306 321 313 277 296 315 321 324 326 326 328 327 327 325 326 330 327 326 323 318 318 318 319 315 306 298 294 292 273 255 239
184 179 198 172 209 263 286 105 180 229 285 304 304 308 307 302 303 312 319 322 327 329 330 332 330 328 327 330 331 326 324 321 320 320 322 323 322 315 310 307 305 289 249 230
205 201 199 197 218 255 195 204 239 208 253 282 295 304 308 309 312 317 320 322 324 327 328 330 329 326 328 331 331 326 323 323 323 325 325 323 323 324 321 314 308 300 260 232
268 217 203 257 268 267 267 274 296 273 270 287 294 301 308 304 308 314 317 321 323 325 326 329 330 331 331 332 332 327 324 326 326 325 324 323 324 324 325 319 308 299 276 257
241 183 224 264 286 309 286 268 287 299 302 310 314 311 305 306 309 312 315 318 319 321 324 328 330 328 326 329 330 332 334 334 330 328 327 326 324 324 326 325 316 309 295 274
203 187 196 240 248 235 269 288 297 292 298 301 307 312 313 309 306 310 311 313 316 319 324 327 327 326 326 329 330 333 334 334 332 332 333 332 330 329 328 331 336 338 342 338
Height
1498 1503 1505 1504 1503 1503 1504 1504 1504 1501 1499 1501 1503 1504 1503 1502 1500 1500 1499 1498 1497 1496 1496 1495 1494 1493 1493 1493 1494 1495 1496 1497 1498 1499 1500 1502 1504 1506 1508 1511 1514 1517 1519 1521
1503 1505 1503 1502 1502 1502 1503 1504 1505 1501 1499 1501 1504 1505 1504 1503 1502 1502 1501 1499 1498 1496 1494 1493 1492 1491 1491 1492 1492 1493 1494 1495 1496 1497 1499 1500 1502 1503 1505 1508 1511 1514 1516 1518
1505 1505 1501 1502 1502 1502 1503 1505 1504 1503 1500 1500 1503 1504 1505 1503 1503 1502 1502 1500 1499 1497 1495 1492 1491 1490 1490 1490 1491 1491 1492 1493 1494 1495 1496 1498 1500 1501 1502 1504 1507 1510 1513 1515
1506 1504 1502 1502 1503 1503 1503 1501 1501 1501 1504 1507 1505 1510 1505 1505 1503 1502 1501 1500 1498 1497 1495 1493 1491 1489 1489 1489 1489 1490 1491 1491 1492 1493 1494 1495 1496 1497 1499 1501 1503 1506 1509 1511
1507 1505 1505 1504 1503 1503 1503 1500 1501 1502 1505 1510 1509 1513 1508 1507 1505 1503 1502 1501 1499 1498 1495 1493 1491 1490 1488 1488 1487 1488 1488 1489 1489 1490 1491 1493 1494 1495 1497 1498 1500 1502 1505 1508
1507 1506 1506 1506 1503 1502 1502 1502 1502 1505 1507 1511 1510 1513 1510 1510 1507 1505 1503 1501 1499 1497 1495 1493 1491 1489 1488 1487 1486 1485 1486 1486 1487 1488 1489 1490 1491 1492 1494 1495 1496 1498 1501 1504
1511 1508 1507 1505 1504 1503 1504 1508 1510 1511 1513 1510 1508 1510 1511 1508 1506 1504 1502 1500 1498 1496 1494 1491 1489 1487 1486 1485 1484 1483 1483 1484 1485 1486 1486 1487 1488 1489 1491 1492 1493 1494 1496 1498
1519 1515 1510 1508 1508 1509 1509 1510 1515 1516 1514 1513 1512 1512 1511 1507 1505 1503 1502 1500 1497 1495 1493 1491 1489 1487 1486 1484 1483 1482 1481 1481 1482 1483 1484 1484 1485 1486 1488 1489 1490 1491 1493 1495
1523 1517 1511 1509 1508 1509 1510 1513 1514 1519 1520 1521 1517 1518 1510 1505 1504 1502 1500 1498 1496 1494 1492 1490 1488 1487 1485 1483 1482 1481 1479 1479 1479 1480 1480 1481 1482 1483 1484 1485 1487 1489 1490 1492
1523 1523 1514 1512 1509 1510 1511 1514 1518 1518 1519 1517 1516 1518 1513 1508 1505 1503 1500 1498 1496 1494 1491 1490 1487 1485 1483 1482 1480 1479 1477 1477 1476 1477 1477 1477 1478 1479 1480 1482 1484 1485 1487 1488
1523 1526 1520 1516 1516 1516 1516 1517 1519 1522 1520 1520 1518 1516 1509 1508 1506 1504 1502 1499 1496 1493 1491 1488 1486 1484 1482 1480 1479 1476 1475 1474 1474 1474 1474 1474 1475 1476 1477 1478 1480 1481 1482 1484
1523 1527 1527 1521 1517 1516 1516 1518 1521 1523 1525 1525 1524 1519 1507 1507 1505 1504 1501 1498 1496 1493 1490 1488 1485 1483 1480 1478 1476 1474 1473 1472 1471 1471 1471 1471 1472 1472 1473 1474 1475 1476 1478 1480
1524 1529 1530 1522 1522 1521 1520 1521 1521 1523 1525 1526 1524 1517 1507 1506 1504 1503 1501 1498 1495 1492 1489 1486 1484 1481 1478 1476 1474 1472 1470 1469 1468 1468 1468 1468 1468 1468 1469 1470 1471 1473 1474 1476
1523 1530 1532 1529 1524 1525 1525 1522 1522 1522 1525 1524 1520 1514 1508 1507 1505 1503 1500 1498 1495 1492 1489 1486 1483 1480 1477 1474 1472 1470 1468 1467 1465 1464 1463 1463 1464 1464 1465 1466 1467 1469 1470 1471
1523 1529 1529 1527 1524 1524 1524 1521 1520 1522 1521 1521 1517 1515 1510 1508 1506 1503 1500 1497 1494 1492 1489 1486 1483 1479 1476 1473 1470 1468 1466 1464 1462 1461 1460 1459 1460 1461 1461 1462 1463 1465 1466 1468
1525 1529 1529 1527 1523 1523 1521 1519 1518 1518 1519 1518 1516 1514 1509 1507 1505 1502 1500 1497 1494 1491 1488 1485 1482 1478 1475 1472 1468 1465 1463 1461 1459 1457 1456 1456 1456 1456 1457 1458 1459 1461 1462 1463
1526 1529 1529 1527 1525 1522 1523 1520 1519 1519 1519 1518 1516 1514 1509 1506 1504 1502 1500 1497 1494 1491 1488 1484 1481 1478 1474 1471 1467 1463 1461 1459 1456 1454 1453 1452 1452 1452 1453 1454 1455 1456 1457 1459
1526 1528 1530 1530 1530 1530 1522 1518 1518 1518 1517 1517 1514 1512 1510 1507 1504 1501 1500 1497 1494 1491 1487 1483 1480 1476 1472 1468 1465 1462 1459 1456 1454 1452 1450 1450 1449 1449 1449 1450 1451 1452 1453 1455
1523 1525 1530 1532 1534 1528 1520 1518 1519 1519 1517 1515 1514 1511 1509 1505 1501 1500 1499 1496 1493 1490 1486 1482 1478 1474 1470 1466 1463 1459 1456 1453 1451 1448 1447 1446 1446 1446 1445 1446 1446 1448 1449 1450
1525 1526 1530 1533 1532 1528 1520 1518 1516 1519 1518 1514 1512 1511 1508 1505 1504 1501 1498 1495 1491 1488 1484 1480 1476 1472 1468 1464 1460 1457 1454 1451 1448 1446 1444 1444 1443 1442 1442 1442 1443 1444 1445 1446
1530 1532 1533 1533 1533 1526 1520 1517 1517 1521 1518 1513 1512 1510 1509 1507 1506 1502 1497 1493 1490 1486 1482 1478 1474 1469 1465 1462 1458 1454 1451 1448 1446 1444 1442 1441 1440 1439 1439 1439 1439 1440 1441 1442
1530 1532 1534 1534 1534 1527 1517 1516 1518 1517 1513 1512 1511 1509 1508 1505 1502 1499 1495 1492 1488 1484 1480 1476 1471 1467 1464 1460 1456 1452 1448 1446 1444 1441 1439 1438 1437 1436 1436 1436 1436 1436 1437 1438
1529 1528 1527 1527 1523 1517 1515 1514 1514 1513 1512 1511 1509 1508 1506 1503 1500 1496 1493 1489 1486 1482 1477 1474 1469 1465 1462 1458 1454 1450 1447 1444 1441 1439 1437 1435 1434 1433 1433 1432 1433 1433 1434 1435
1525 1524 1524 1522 1517 1514 1514 1513 1512 1512 1510 1509 1508 1506 1503 1501 1498 1494 1491 1487 1484 1480 1476 1472 1467 1463 1459 1455 1452 1449 1445 1442 1439 1436 1434 1432 1431 1430 1430 1430 1430 1430 1431 1431
1522 1522 1522 1520 1515 1513 1511 1511 1510 1509 1508 1507 1505 1503 1501 1498 1495 1492 1489 1485 1482 1478 1474 1470 1466 1462 1458 1454 1450 1447 1443 1440 1437 1434 1432 1430 1429 1428 1427 1427 1427 1427 1428 1429
1518 1519 1520 1516 1512 1512 1509 1508 1508 1507 1505 1504 1502 1500 1498 1496 1493 1490 1487 1483 1480 1476 1472 1468 1464 1460 1456 1453 1449 1445 1442 1439 1436 1433 1430 1429 1427 1426 1425 1424 1424 1425 1426 1426